Observations
| Time | Sensor | AQI | SAQ | Temp °C | Hum % | Pres Pa | CO μg/m³ | H₂S μg/m³ | NO μg/m³ | NO₂ μg/m³ | O₃ μg/m³ | SO₂ μg/m³ | CO₂e PPM | VOC PPM | PM1 μg/m³ | PM2.5 μg/m³ | PM4 μg/m³ | PM10 μg/m³ | TPS µm |
|---|---|---|---|---|---|---|---|---|---|---|---|---|---|---|---|---|---|---|---|
| Tuesday 11 August 2026 | |||||||||||||||||||
| 13:12 | Trim Patrick St | 2 | 31.5 | 30 | 69,334 | 0 | 8.96 | 0.93 | 17.31 | 115.39 | 17.55 | 2.86 | 8.45 | 9.29 | |||||
| 13:11 | Trim Patrick St | 2 | 31.4 | 30 | 69,341 | 0 | 3.15 | 0.96 | 13.85 | 76.07 | 16.56 | 2 | 7.65 | 8.41 | |||||
| 13:11 | Trim Market St | 2 | 39.2 | 20 | 66,935 | 0 | 0 | 0.18 | 15.64 | 90.19 | 4.59 | 0.71 | 4.32 | 4.75 | |||||
| 13:10 | Trim Patrick St | 1 | 31.4 | 30 | 69,324 | 0 | 10.56 | 0.91 | 14.34 | 95.02 | 17.37 | 2 | 7.67 | 8.44 | |||||
| 13:09 | Trim Patrick St | 1 | 31.3 | 30 | 69,330 | 0 | 24.72 | 0.96 | 22.95 | 100.53 | 19.57 | 2 | 8.51 | 9.36 | |||||
| 13:09 | Trim Market St | 2 | 39.2 | 19 | 66,939 | 0 | 0 | 0.19 | 14.98 | 79.38 | 5.23 | 0 | 3.77 | 4.15 | |||||
| 13:08 | Trim Patrick St | 2 | 31.3 | 30 | 69,338 | 0 | 18.76 | 0.89 | 39.69 | 105.63 | 18.55 | 2.86 | 10.11 | 11.12 | |||||
| 13:07 | Trim Patrick St | 2 | 31.4 | 29 | 69,324 | 0 | 4.09 | 1 | 15.02 | 90.84 | 16.06 | 2 | 8.53 | 9.38 | |||||
| 13:06 | Trim Patrick St | 1 | 31.4 | 29 | 69,336 | 0 | 7.36 | 1 | 14.55 | 97.48 | 18.17 | 2.86 | 8.53 | 9.39 | |||||
| 13:06 | Trim Market St | 2 | 39.4 | 19 | 66,967 | 0 | 1.17 | 0.12 | 19.74 | 76.45 | 4.01 | 0.71 | 4.35 | 4.78 | |||||
| 13:05 | Trim Patrick St | 1 | 31.4 | 28 | 69,345 | 0 | 3.79 | 1.11 | 16.17 | 97.31 | 16.95 | 2 | 7.79 | 8.57 | |||||
| 13:04 | Trim Patrick St | 1 | 31.5 | 29 | 69,332 | 0 | 6.65 | 1.08 | 15.64 | 130.12 | 18.35 | 2 | 7.75 | 8.53 | |||||
| 13:03 | Trim Patrick St | 1 | 31.6 | 29 | 69,338 | 0 | 6.05 | 1.05 | 16.59 | 104.27 | 17.41 | 2 | 8.55 | 9.41 | |||||
| 13:02 | Trim Patrick St | 1 | 31.6 | 29 | 69,324 | 0 | 1.41 | 1.06 | 13.66 | 74.94 | 17.16 | 2.86 | 8.57 | 9.42 | |||||
| 13:01 | Trim Patrick St | 1 | 31.6 | 28 | 69,330 | 0 | 7.4 | 1.11 | 16.98 | 91.9 | 17.06 | 2.86 | 8.62 | 9.49 | |||||
| 13:00 | Trim Patrick St | 2 | 31.6 | 28 | 69,338 | 0 | 8.42 | 1.1 | 17.44 | 118.13 | 18.02 | 2 | 7.8 | 8.58 | |||||
| 12:59 | Trim Market St | 2 | 40 | 19 | 67,023 | 0 | 7.01 | 0.07 | 22.82 | 72.43 | 3.78 | 0 | 3.23 | 3.55 | |||||
| 12:59 | Trim Patrick St | 2 | 31.6 | 29 | 69,345 | 0 | 7.93 | 1.01 | 16.59 | 98.01 | 16.68 | 2 | 7.75 | 8.53 | |||||
| 12:58 | Trim Market St | 2 | 39.9 | 19 | 66,990 | 0 | 0 | 0.08 | 14.8 | 89.55 | 4.33 | 0 | 3.78 | 4.16 | |||||
| 12:58 | Trim Patrick St | 1 | 31.6 | 29 | 69,357 | 0 | 12.61 | 1.05 | 17.86 | 138.86 | 18.3 | 2 | 8.56 | 9.41 | |||||